NETSAT-4

Last updated on Mon Dec 15 2025 00:03:57 GMT+0000 (Coordinated Universal Time)

1 46504U 20068U 25347.93445917 .00018545 00000+0 51696-3 0 9990 2 46504 97.8599 337.3093 0004282 259.5979 100.4782 15.36823852287257
UTC large
Height (km)
Speed (km/s)
/
Latitude / Longitude
Inclination (degrees)
Orbital Period (minutes)
Azimuth
Elevation
Range (km)
Doppler Factor

Next 0 passes for location: London (51.5072 / 0.1276)

Sorry there are no passes over London.